Date,TemperatureHighF,TemperatureAvgF,TemperatureLowF,DewpointHighF,DewpointAvgF,DewpointLowF,HumidityHigh,HumidityAvg,HumidityLow,PressureMaxIn,PressureMinIn,WindSpeedMaxMPH,WindSpeedAvgMPH,GustSpeedMaxMPH,PrecipitationSumIn
2013-10-1,90,82,75,76,62,40,65,53,28,30.02,29.93,9,3,15,0.00
2013-10-2,90,80,76,76,56,39,65,47,27,30.02,29.93,10,6,14,0.45
2013-10-3,89,79,76,75,52,38,64,41,25,30.04,29.93,10,4,13,0.09
2013-10-4,88,80,75,74,55,38,64,44,25,30.06,29.97,6,2,10,0.00
2013-10-5,86,79,75,72,61,51,64,54,42,30.04,29.92,6,2,10,0.00
2013-10-6,85,79,74,70,57,38,63,48,26,29.97,29.87,8,2,11,0.00
2013-10-7,84,81,78,66,58,44,54,46,28,29.88,29.79,16,8,19,0.07
2013-10-8,86,80,78,72,62,57,63,54,47,29.92,29.83,9,6,13,0.00
2013-10-9,78,76,74,60,56,52,55,50,46,30.00,29.95,8,6,12,0.00
2013-10-10,86,77,70,72,55,38,64,48,30,30.03,29.94,8,4,12,0.00
2013-10-11,87,78,72,69,57,40,65,49,31,30.02,29.93,7,2,11,0.00
2013-10-12,85,78,72,70,59,40,65,54,31,30.04,29.95,8,2,13,0.00
2013-10-13,86,78,71,72,62,40,65,57,31,30.06,29.95,7,2,13,0.00
2013-10-14,86,78,70,70,60,43,65,55,36,30.02,29.90,7,4,12,0.00
2013-10-15,85,77,71,71,58,39,65,52,31,29.98,29.88,7,4,11,0.00
2013-10-16,84,77,72,71,53,36,64,45,27,29.95,29.89,7,3,12,0.00
2013-10-17,85,78,73,71,56,37,64,48,27,29.97,29.88,7,2,10,0.00
2013-10-18,86,80,74,72,57,38,64,47,27,29.98,29.89,8,2,9,0.00
2013-10-19,84,80,76,64,55,43,52,42,31,29.95,29.86,9,4,12,0.00
2013-10-20,87,81,77,73,57,40,63,46,26,29.95,29.86,7,2,10,0.00
2013-10-21,86,80,75,71,56,42,61,45,30,29.99,29.90,7,2,11,0.00
2013-10-22,87,80,75,70,53,42,57,40,30,29.96,29.83,13,5,18,0.01
2013-10-23,83,78,73,69,57,41,64,50,28,29.98,29.82,13,6,16,0.02
2013-10-24,76,72,68,63,59,54,66,64,59,30.13,29.97,12,8,19,0.00
2013-10-25,80,71,64,65,56,45,66,59,50,30.19,30.10,9,5,12,0.00
2013-10-26,81,72,64,66,56,43,67,59,47,30.17,30.06,9,5,14,0.00
2013-10-27,80,71,63,65,55,38,66,57,39,30.10,30.02,8,3,11,0.00
2013-10-28,84,74,66,68,54,37,65,51,34,30.16,30.06,8,4,11,0.00
2013-10-29,85,76,67,70,58,42,65,54,38,30.19,30.08,10,5,17,0.00
2013-10-30,85,78,70,69,61,37,66,57,30,30.19,30.05,9,4,14,0.00
2013-10-31,85,76,69,71,54,41,63,48,30,30.11,29.97,9,3,13,0.00